Starlink 11592

operational
NORAD ID: 63560 Int'l Des: 2025-075 Owner: SPXS Country: US Constellation: starlink
LEOCIRCULAR

About Starlink 11592

Description loading...

Live Position

Loading 3D Globe...

Upcoming Passes

Altitude History

Altitude vs Time

uPlot chart will show altitude changes over time

Two-Line Element Set

1 63560U 25075N 25350.54534914 .00207952 00000-0 15803-2 0 9993
2 63560 42.9991 294.8325 0000176 285.3806 74.7042 15.70892926 40170
Epoch: Dec 16, 2025 • Age: 19 hours

Current Status

Altitude 368.4 km
Velocity 7.69 km/s
Sub-Earth Point -42.60°S, 3.69°W
Launch Date Apr 13, 2025
Age 0.6 years
Type internet

Technical Details

Classification Payload
Mass 960.00 kg
Dry Mass 910.00 kg
Total Mass 960.00 kg
Length 0.30 m
Diameter 4.10 m
Span 29.00 m
Shape Box + pan
Manufacturer SPXS
Bus Type Starlink V2MD
Phase Status In Orbit
Owner/State SPXS/US

Large Constellations

Loading constellations...